Location: *
(61.3833°N, 23.0167°E)
Time: 21:50:04
(UTC+00:00)

Daily predictions for brighter satellites

Satellite Brightness Start Highest point End
(mag) Time Altitude Azimuth Time Altitude Azimuth Time Altitude Azimuth
USA 238 DEB 3.9 20:53:06 10° WNW 21:00:10 84° SSW 21:07:28 10° ESE
USA 238 3.9 20:53:12 10° WNW 21:00:16 85° SSW 21:07:34 10° ESE
Cosmos 192 4.4 20:58:34 10° NW 21:03:34 89° SW 21:08:31 10° SSE
Mayak -0.6 20:59:50 10° NNE 21:03:55 43° E 21:07:59 10° S
ATLAS CENTAUR R/B 2.8 21:00:05 10° WNW 21:04:21 32° SW 21:08:23 10° S
ASTEX 1 3.6 21:00:05 10° N 21:05:06 77° W 21:10:07 10° SSW
Cosmos 1943 Rocket 2.9 20:59:47 10° NW 21:05:13 54° NE 21:10:38 10° ESE
ATLAS 5 CENTAUR R/B 2.2 21:00:57 10° WNW 21:06:13 76° SSW 21:12:19 10° SE
Lacrosse 5 2.6 21:02:01 10° W 21:06:37 35° SSW 21:11:12 10° SE
Cosmos 1825 3.7 21:03:28 10° SW 21:07:00 37° WNW 21:10:34 10° N
ISS -2.1 21:05:52 10° SW 21:07:58 16° S 21:10:04 10° SE
Cosmos 2297 3.8 21:02:28 10° NW 21:08:09 81° SW 21:13:49 10° SE
Cosmos 2219 Rocket 2.4 21:02:45 10° SSW 21:08:16 55° ESE 21:13:49 10° NE
Helios 1B rocket 3.8 21:05:42 10° NE 21:09:15 27° E 21:12:46 10° SSE
Cosmos 2322 Rocket 3.1 21:05:47 10° WSW 21:11:26 57° NW 21:17:05 10° NE
Cosmos 2278 Rocket 3.1 21:06:39 10° NW 21:11:54 40° WSW 21:17:09 10° S
Cosmos 1805 Rocket 4.1 21:08:22 10° SSW 21:12:42 61° WNW 21:17:03 10° N
Cosmos 44 3.9 21:08:13 10° W 21:13:15 63° NNW 21:17:58 10° ENE
Cosmos 2208 Rocket 4.4 21:08:37 10° NW 21:13:59 59° WSW 21:19:17 10° SSE
Cosmos 2333 4.2 21:11:04 10° SSW 21:16:45 75° SE 21:22:25 10° NE
Lacrosse 4 Rocket 3.6 21:14:56 10° SE 21:16:48 12° ESE 21:18:39 10° E
Cosmos 1703 Rocket 3.7 21:13:08 10° NNW 21:17:36 74° ENE 21:22:05 10° SSE
Cosmos 1634 Rocket 4.5 21:11:38 10° SSW 21:17:49 63° WNW 21:24:02 10° NNE
Meteor 1-27 Rocket 4.1 21:12:20 10° NNW 21:18:12 71° WSW 21:24:05 10° S
MOS 1 Rocket 3.4 21:13:47 10° NNE 21:18:12 77° WNW 21:22:49 10° SSW
SL-16 R/B 3.3 21:13:25 10° WSW 21:18:57 51° NNW 21:24:32 10° NE
COSMOS 2455 4.1 21:16:28 10° SSE 21:21:02 23° ESE 21:25:38 10° ENE
Terra 3.5 21:17:49 10° SSW 21:21:49 26° W 21:25:50 10° NNW
Cosmos 2333 Rocket 2.3 21:17:31 10° SSW 21:23:08 64° SE 21:28:46 10° NE
Cosmos 2242 Rocket 3.9 21:20:04 10° NNW 21:24:34 64° W 21:29:05 10° S
SL-19 R/B 3.8 21:21:21 10° NNE 21:24:49 77° ESE 21:27:52 10° SSW
Okean 1-7 3.1 21:21:04 10° NNW 21:25:23 72° ENE 21:29:43 10° SSE
NOSS 3-1 (C) 3.6 21:19:56 10° SW 21:25:45 60° SE 21:32:38 10° ENE
Cosmos 44 Rocket 3.5 21:20:47 10° WSW 21:25:52 81° NNW 21:30:50 10° ENE
Cosmos 2322 3.9 21:27:19 10° SW 21:33:00 82° NW 21:38:45 10° NE
Cosmos 1666 Rocket 4.0 21:29:02 10° SSW 21:33:30 66° WNW 21:38:00 10° NNE
Cosmos 1633 Rocket 3.2 21:29:32 10° SSW 21:33:53 74° WNW 21:38:16 10° NNE
Cosmos 1933 Rocket 3.7 21:31:11 10° S 21:35:32 62° E 21:39:53 10° NNE
Cosmos 1814 Rocket 4.3 21:30:38 10° NW 21:35:41 56° WSW 21:40:41 10° S
Cosmos 2369 Rocket 2.6 21:31:05 10° NW 21:36:51 70° NE 21:42:33 10° SE
NOSS 5 (C) 4.1 21:33:57 10° WSW 21:37:07 88° SSE 21:40:07 10° ENE
YAOGAN 11 4.4 21:33:34 10° S 21:37:51 61° WSW 21:42:11 10° NNW
Cosmos 2221 Rocket 4.1 21:34:12 10° N 21:38:43 57° ENE 21:43:10 10° SSE
Gbstr 26 Del rocket 4.1 21:38:41 10° SW 21:41:18 18° S 21:43:56 10° SSE
Cosmos 676 Rocket 4.3 21:36:21 10° SW 21:41:36 76° NW 21:46:57 10° NNE
ALOS 2 2.7 21:37:52 10° S 21:42:15 73° WSW 21:46:41 10° NNW
Okean 1 3.8 21:40:54 10° N 21:44:55 57° ENE 21:48:54 10° SSE
NOSS 3-2 (C) 3.9 21:39:13 10° WNW 21:46:11 82° SSW 21:54:10 10° ESE
GP-B 3.2 21:42:02 10° N 21:46:30 79° W 21:50:57 10° S
NOSS 8 (A) 4.5 21:43:49 10° SW 21:46:50 49° SE 21:50:10 10° ENE
Cosmos 1867 4.0 21:43:47 10° SSW 21:48:58 45° SE 21:54:11 10° ENE
H-2A R/B 4.4 21:46:02 10° E 21:49:26 21° NE 21:52:49 10° N
Sich 1 4.1 21:45:27 10° SW 21:49:31 42° WNW 21:53:38 10° N
ERS-2 2.2 21:47:19 10° SSE 21:51:00 84° ENE 21:54:43 10° NNW
Cosmos 540 Rocket 3.8 21:47:25 10° NW 21:52:25 54° WSW 21:57:23 10° S
Cosmos 1741 Rocket 4.0 21:47:20 10° SSW 21:52:31 70° ESE 21:57:45 10° NE
Cosmos 1470 Rocket 3.7 21:48:58 10° SSW 21:53:21 81° WNW 21:57:50 10° NNE
Cosmos 1954 Rocket 4.4 21:49:30 10° SW 21:54:45 69° NW 22:00:05 10° NNE
ARGOS Delta rocket 4.4 21:51:12 10° S 21:55:34 48° W 22:00:10 10° NNW
Cosmos 1140 Rocket 4.2 21:51:39 10° SW 21:56:48 58° NW 22:02:00 10° NNE
Cosmos 2084 3.8 21:54:28 10° W 21:58:51 73° N 22:03:06 10° E
Lacrosse 5 rocket 3.3 21:57:04 10° W 22:00:06 18° SW 22:03:05 10° S
Cosmos 1869 Rocket 4.1 21:56:05 10° SSE 22:00:17 46° E 22:04:29 10° NNE
Cosmos 1812 3.9 21:57:07 10° NNW 22:00:41 35° W 22:04:14 10° SSW
Cosmos 1850 Rocket 4.1 21:56:46 10° SSW 22:02:08 81° ESE 22:07:31 10° NE
USA 229 DEB 3.7 21:58:00 10° WSW 22:04:47 82° SSE 22:11:56 10° ENE
USA 229 3.7 21:58:07 10° WSW 22:04:53 82° SSE 22:12:03 10° ENE
SeaSat 1 3.3 22:02:45 10° NE 22:07:19 36° ESE 22:11:52 10° S
NOSS 3-1 (A) 3.6 22:01:52 10° SW 22:07:48 67° SE 22:14:49 10° ENE
Cosmos 1633 3.2 22:04:27 10° SSW 22:07:57 52° WNW 22:11:30 10° N
Cosmos 2263 4.4 22:03:27 10° NW 22:09:10 79° NE 22:14:49 10° SE
Cosmos 2285 Rocket 4.4 22:04:44 10° S 22:10:47 51° ESE 22:16:51 10° NE
SL-16 R/B 3.0 22:06:11 10° S 22:11:17 36° ESE 22:16:24 10° NE
USA 215 3.3 22:08:01 10° E 22:14:31 63° S 22:21:02 10° W
COSMOS 2428 3.0 22:09:57 10° SW 22:15:42 75° NW 22:21:29 10° NE
Meteor 2-4 Rocket 4.1 22:10:45 10° NNW 22:16:34 65° ENE 22:22:13 10° SSE
NOSS 2-3 (E) 4.2 22:13:58 10° SW 22:18:38 54° SE 22:24:27 10° ENE
SL-4 R/B 3.3 22:14:57 10° SW 22:18:51 25° S 22:22:39 10° ESE
Cosmos 1315 Rocket 3.5 22:15:06 10° NNW 22:18:53 44° W 22:22:40 10° S
Cosmos 1980 3.7 22:14:17 10° SSW 22:19:58 74° SE 22:25:40 10° NE
NOSS 2-3 (D) 4.2 22:16:54 10° SW 22:21:33 53° SE 22:27:19 10° ENE
Cosmos 2360 Rocket 3.5 22:18:22 10° W 22:23:47 45° NNW 22:29:12 10° NE
NOSS 3-2 (A) 4.1 22:17:21 10° WNW 22:24:16 58° SW 22:32:07 10° SE
Cosmos 2237 Rocket 2.2 22:21:11 10° SSW 22:26:48 76° SE 22:32:27 10° NE
Cosmos 1674 Rocket 4.0 22:22:21 10° N 22:26:50 63° ENE 22:31:16 10° SSE
Cosmos 1656 Rocket 4.1 22:21:33 10° NW 22:27:16 70° NE 22:32:57 10° SE
CENTAUR R/B 3.1 22:20:09 10° WNW 22:27:34 78° SSW 22:35:59 10° SE
Meteor 1-29 2.9 22:25:46 10° NNE 22:29:15 85° ESE 22:32:41 10° SSW
Cosmos 1553 Rocket 4.2 22:23:35 10° S 22:29:34 62° E 22:35:38 10° NNE
Cosmos 1980 Rocket 4.4 22:25:05 10° WNW 22:30:03 31° N 22:35:03 10° ENE
ATLAS 3B R/B 2.6 22:27:11 10° WNW 22:33:49 71° SW 22:40:29 10° SE
S3M 4.4 22:28:51 10° S 22:35:05 58° E 22:41:21 10° NNE
Cosmos 1733 Rocket 4.0 22:33:46 10° SSE 22:37:52 39° E 22:41:56 10° NNE
Cosmos 1709 Rocket 4.2 22:32:17 10° NNW 22:38:33 70° ENE 22:44:41 10° SSE
Mayak 0.0 22:35:34 10° N 22:39:32 39° WNW 22:43:29 10° SW
Cosmos 1437 2.6 22:36:54 10° SSW 22:39:55 83° WNW 22:43:02 10° NNE
Cosmos 1515 3.8 22:37:35 10° NNW 22:41:25 73° ENE 22:45:12 10° SSE
Cosmos 1378 Rocket 3.9 22:37:43 10° N 22:42:02 62° ENE 22:46:19 10° SSE
ISS -1.9 22:42:04 10° SW 22:43:45 13° SSW 22:45:17 10° SSE
Helios 1B rocket 2.9 22:40:45 10° NNE 22:44:51 61° WNW 22:48:57 10° SW
Meteor 1-19 Rocket 4.3 22:40:08 10° NNW 22:45:35 68° WSW 22:51:01 10° S
DELTA 2 DEB (DPAF) 4.3 22:42:02 10° S 22:46:29 68° WSW 22:50:58 10° NNW
NOSS 0 Rocket 4.0 22:40:25 10° SW 22:46:36 85° NW 22:52:50 10° NE
OPS 6432 4.5 22:44:17 10° WNW 22:47:15 72° NNE 22:50:40 10° E
Lacrosse 5 3.6 22:45:41 10° W 22:48:28 15° SW 22:51:15 10° SSW
Okean 3 3.6 22:44:32 10° NNW 22:48:47 65° W 22:52:55 10° S
Cosmos 1943 Rocket 2.4 22:43:42 10° NW 22:49:06 56° WSW 22:54:29 10° SSE
Resurs 1-4 Rocket 4.3 22:45:47 10° NE 22:49:11 17° E 22:52:35 10° ESE
ATLAS 5 CENTAUR R/B 3.1 22:45:38 10° WNW 22:50:31 33° SW 22:56:00 10° S
USA 238 DEB 4.3 22:44:07 10° WNW 22:50:42 42° SW 22:57:27 10° SSE
USA 238 4.3 22:44:13 10° WNW 22:50:48 42° SW 22:57:34 10° SSE
Cosmos 2219 Rocket 2.9 22:46:45 10° WSW 22:52:21 56° NW 22:57:57 10° NE
Cosmos 1602 3.9 22:49:11 11° S 22:52:59 66° E 22:56:52 10° NNE
Cosmos 1745 Rocket 4.2 22:47:18 10° NNW 22:53:37 68° W 22:59:48 10° S
Cosmos 2278 Rocket 4.5 22:53:36 10° W 22:54:32 10° W 22:55:27 10° WSW
Lacrosse 4 Rocket 1.9 22:50:17 10° SSW 22:54:35 48° SE 22:58:51 10° NE
SL-16 R/B 3.2 22:48:44 10° SE 22:54:47 57° ENE 23:00:50 10° NNW
Cosmos 44 4.0 22:50:07 10° WNW 22:55:00 58° N 22:59:35 10° E
Cosmos 2322 Rocket 4.2 22:51:24 10° WNW 22:56:33 33° N 23:01:42 10° NE
ATLAS 2AS CENTAUR R/B 4.1 22:54:06 10° S 23:00:44 29° ESE 23:07:20 10° ENE
NOSS 2-3 (C) 4.1 22:59:02 10° SW 23:03:56 76° SSE 23:10:11 10° ENE
SL-16 R/B 4.3 22:59:06 10° WNW 23:04:13 32° N 23:09:20 10° ENE
Cosmos 220 Rocket 4.1 23:00:51 10° NW 23:05:18 68° WSW 23:09:41 10° SSE
COSMOS 2455 2.9 23:00:07 10° SW 23:06:06 67° SE 23:12:08 10° NE
Meteor 1-14 Rocket 4.4 23:01:45 10° SSW 23:07:38 89° ESE 23:13:40 10° NNE
Cosmos 2333 Rocket 3.1 23:02:07 10° WSW 23:07:40 51° NNW 23:13:14 10° NE
Cosmos 44 Rocket 4.2 23:02:53 10° W 23:07:50 56° N 23:12:39 10° ENE
Meteor 1-25 Rocket 4.3 23:03:03 10° SSW 23:08:38 77° WNW 23:14:19 10° NNE
Cosmos 2098 Rocket 2.2 23:06:36 10° NNW 23:09:59 79° W 23:12:57 10° S
CZ-4C R/B 3.9 23:05:38 10° S 23:10:00 57° WSW 23:14:25 10° NNW
Meteor 1-20 Rocket 4.5 23:05:48 10° SSW 23:11:37 75° WNW 23:17:31 10° NNE
Meteor 1-11 Rocket 4.5 23:07:08 10° SSE 23:12:29 46° E 23:17:59 10° NNE
NOSS 3-1 (C) 3.9 23:10:18 10° WSW 23:16:34 81° NNW 23:24:02 10° ENE
CZ-2D R/B 3.8 23:14:35 10° NNE 23:19:04 25° E 23:23:34 10° SE
Cosmos 2315 Rocket 4.5 23:13:13 10° S 23:19:25 58° E 23:25:40 10° NNE
Cosmos 2369 Rocket 2.8 23:15:22 10° NW 23:20:42 41° WSW 23:26:00 10° S
PSLV R/B 3.7 23:18:10 10° NNE 23:22:29 68° ESE 23:26:41 10° S
H-2A R/B 2.4 23:20:20 10° SSE 23:24:52 76° ENE 23:29:23 10° NNW
ERS-2 4.2 23:22:37 10° SW 23:25:06 17° W 23:27:36 10° NW
SAR-Lupe-4 3.6 23:23:26 10° SSE 23:27:02 83° ENE 23:30:40 10° NNW
UNK 4.0 23:25:54 10° SSE 23:30:28 71° ENE 23:35:05 10° NNW
Aureole 3 Rocket 4.4 23:23:15 10° SSW 23:31:34 90° W 23:37:30 10° NNE
Cosmos 1867 3.8 23:26:53 10° WSW 23:32:23 80° NNW 23:37:56 10° ENE
Cosmos 773 Rocket 4.1 23:27:55 10° NW 23:33:09 62° WSW 23:38:18 10° SSE
NOSS 3-2 (C) 4.4 23:30:05 10° WNW 23:36:46 42° SW 23:44:13 10° SSE
CZ-4 R/B 4.5 23:32:39 10° NNE 23:37:11 50° WNW 23:41:45 10° SW
Cosmos 2084 3.4 23:34:09 10° WNW 23:38:30 75° SSW 23:42:40 10° ESE
Cosmos 1603 4.2 23:36:39 10° S 23:42:03 49° ESE 23:47:28 10° NE
Cosmos 1536 3.3 23:39:32 10° S 23:43:28 57° E 23:47:27 10° NNE
Iridium 2 4.3 23:40:26 10° SSW 23:44:07 46° WNW 23:47:49 10° N
Cosmos 2184 Rocket 4.2 23:38:46 10° NNW 23:45:10 81° ENE 23:51:27 10° SSE
SeaSat 1 2.7 23:40:15 10° NE 23:45:13 73° NW 23:50:09 10° SW
Meteor 1-23 Rocket 4.4 23:42:03 10° NNW 23:47:52 71° WSW 23:53:39 10° S
USA 32 4.4 23:42:51 10° NNW 23:48:00 55° W 23:53:06 10° SSW
Cosmos 1025 Rocket 4.3 23:49:40 10° N 23:53:53 43° ENE 23:58:05 10° SE
